Poughkeepsie, NY

4:06 PM EDT on June 25, 2017 (GMT -0400)
Dutchess County

Weather History for KPOU - February, 2011

Change the Weather History Date:

Thursday, February 24, 2011

  Actual Average Record
Temperature  
Mean Temperature 24 °F 30 °F  
Max Temperature 42 °F 42 °F 73 °F (2017)
Min Temperature 5 °F 20 °F -12 °F (2015)
Degree Days  
Heating Degree Days 41 34  
Month to date heating degree days 914 883  
Since 1 July heating degree days 4523 4435  
Cooling Degree Days 0 0  
Month to date cooling degree days 0 0  
Year to date cooling degree days 0 0  
Moisture  
Dew Point 15 °F    
Average Humidity 62    
Maximum Humidity 82    
Minimum Humidity 33    
Precipitation  
Precipitation 0.02 in 0.10 in 2.22 in (2016)
Month to date precipitation 1.76 2.24  
Year to date precipitation 3.54 5.32  
Sea Level Pressure  
Sea Level Pressure 30.14 in    
Wind  
Wind Speed 2 mph (SSE)    
Max Wind Speed 10 mph    
Max Gust Speed 15 mph    
Visibility 10 miles    
Events Rain    
T = Trace of Precipitation, MM = Missing Value Source: NWS Daily Summary

Daily Weather History Graph

Daily Weather History Graph

Search for Another Location

Airport or City:

Trip Planner

Search our weather history database for the weather conditions in past years. The results will help you decide how hot, cold, wet, or windy it might be!

Date:

Astronomy

Feb. 24, 2011 Rise Set
Actual Time 6:38 AM EST 5:39 PM EST
Civil Twilight 6:10 AM EST 6:07 PM EST
Nautical Twilight 5:38 AM EST 6:40 PM EST
Astronomical Twilight 5:06 AM EST 7:12 PM EST
Moon 12:37 AM EST (2/24) 10:03 AM EST (2/24)
Length of Visible Light 11h 57m
Length of Day
11h 01m
Waning Gibbous, 53% of the Moon is Illuminated
Feb 24
Waning Gibbous
Feb 24
Last Quarter
Mar 4
New
Mar 12
First Quarter
Mar 19
Full

Hourly Weather History & Observations

Time (EST) Temp. Windchill Dew Point Humidity Pressure Visibility Wind Dir Wind Speed Gust Speed Precip Events Conditions
12:53 AM 12.0 °F - 5.0 °F 73% 30.30 in 10.0 mi Calm Calm - N/A   Clear
1:53 AM 10.0 °F - 3.0 °F 73% 30.29 in 10.0 mi Calm Calm - N/A   Clear
2:53 AM 9.0 °F - 3.9 °F 80% 30.27 in 9.0 mi Calm Calm - N/A   Clear
3:53 AM 8.1 °F - 1.9 °F 76% 30.27 in 10.0 mi Calm Calm - N/A   Clear
4:53 AM 8.1 °F - 3.0 °F 80% 30.27 in 10.0 mi Calm Calm - N/A   Clear
5:53 AM 6.1 °F - 1.0 °F 80% 30.28 in 10.0 mi Calm Calm - N/A   Clear
6:53 AM 7.0 °F - 1.9 °F 80% 30.27 in 10.0 mi Calm Calm - N/A   Clear
7:53 AM 10.9 °F - 5.0 °F 77% 30.25 in 10.0 mi Calm Calm - N/A   Clear
8:53 AM 19.0 °F - 6.1 °F 57% 30.25 in 10.0 mi Calm Calm - N/A   Clear
9:53 AM 28.0 °F - 8.1 °F 43% 30.22 in 10.0 mi Calm Calm - N/A   Clear
10:53 AM 30.9 °F 27.5 °F 9.0 °F 40% 30.20 in 10.0 mi West 3.5 mph - N/A   Overcast
11:53 AM 35.1 °F - 12.0 °F 39% 30.17 in 10.0 mi Calm Calm - N/A   Overcast
12:53 PM 39.0 °F 34.8 °F 12.9 °F 34% 30.13 in 10.0 mi SSE 5.8 mph - N/A   Mostly Cloudy
1:53 PM 39.9 °F 35.1 °F 14.0 °F 35% 30.11 in 10.0 mi SSE 6.9 mph - N/A   Overcast
2:53 PM 39.9 °F 37.8 °F 16.0 °F 38% 30.08 in 10.0 mi South 3.5 mph - N/A   Overcast
3:53 PM 41.0 °F 38.0 °F 17.1 °F 38% 30.05 in 10.0 mi South 4.6 mph - N/A   Overcast
4:53 PM 41.0 °F 36.4 °F 19.0 °F 41% 30.04 in 10.0 mi SSE 6.9 mph - N/A   Overcast
5:53 PM 39.9 °F 35.8 °F 21.0 °F 47% 30.04 in 10.0 mi SSE 5.8 mph - 0.00 in   Overcast
6:53 PM 39.0 °F 35.7 °F 25.0 °F 57% 30.05 in 10.0 mi SE 4.6 mph - N/A   Overcast
7:53 PM 37.9 °F 33.5 °F 27.0 °F 65% 30.03 in 10.0 mi SSE 5.8 mph - N/A   Overcast
8:53 PM 37.0 °F - 28.9 °F 73% 30.03 in 10.0 mi Calm Calm - 0.00 in   Overcast
9:53 PM 36.0 °F - 30.0 °F 79% 30.01 in 10.0 mi Calm Calm - N/A   Overcast
10:53 PM 35.1 °F - 30.9 °F 85% 30.01 in 8.0 mi Calm Calm - 0.00 in   Overcast
11:17 PM 35.6 °F - 30.2 °F 81% 30.01 in 8.0 mi Calm Calm - 0.00 in Rain Light Rain
11:53 PM 35.1 °F 32.2 °F 32.0 °F 89% 29.97 in 6.0 mi SE 3.5 mph - 0.01 in Rain Light Rain